SL-14 DEB, 45331

Orbit data source: Space-Track

SL-14 DEB, 45331 is space debris in LEO originally from a launch on Thu, 15 Aug 1991 UTC launched from the Plesetsk Missile And Space Complex (PKMTR). Debris objects in space refer to the collection of defunct objects orbiting the Earth. Examples of debris include non-operational satellites, rocket bodies, and fragments generated from explosions, collisions, or faulty payload assembly.

Loading next visibility...
Identifier
45331, 1991-056BV
Orbit
LEO
Country
Flag of CISCIS
Related business
Manufacturer
Unknown
Mission
Spacecraft
Bus & Motor
Unknown
Mass
Unknown
Launch date (UTC)
1991-08-15 (35 years ago)
Launch vehicle
Unknown
Launch site
Plesetsk Missile And Space Complex (PKMTR)
Object type
Payload
Rocket body
Debris
Shape & HBR
Unknown shape, 0.1 m
Radar Cross Section
Medium (>0.1 m² and <1 m²)

Expand to show TLE details & history
Last TLE update: 17 hours ago

TLE from 17 hours ago
0 SL-14 DEB
1 45331U 91056BV  26174.62204869  .00003662  00000-0  11823-1 0  9997
2 45331  82.6608 251.6246 0254033 186.1264 173.6722 12.91631732296234
Epoch: 2026-06-23T14:55Z
TLE epoch observation values (Epoch: 2026-06-23T14:55:45.006Z)
Latitude
-0.00006°
Longitude
115.89609°
Altitude
1,491.66 km
Speed
7.028 km/s
True Right ascension
16h 46m 29s
True Declination
0° 00' 00"
Sunlit
Object was in full shadow at epoch
Visualization orbit readout
Latitude
Unknown
Longitude
Unknown
Altitude
Unknown
Speed
Unknown
Apparent Right ascension
Unknown
Apparent Declination
Unknown
Sunlit
N/A
Visualization observer readout
Local Sidereal Time
18:54:51
Azimuth
Unknown
Elevation
Unknown
Doppler factor
Unknown
Orbital elements
Apogee altitude
1,487.183 km
Perigee altitude
1,097.473 km
Semi-major axis
7,670.465 km
Eccentricity
0.0254
Inclination
82.6608°
RAAN
251.6246°
Arg. of periapsis
186.1264°
True anomaly
173.98321°
Mean anomaly
173.6722°
Eccentric anomaly
173.82867°
Mean motion
3.2308 °/min
Orbital period
111.43 mins
BSTAR
0.011823
Loading maneuver chart data...
Computing Atmospheric mass density...
Loading historical data...
Loading historical data...
Loading historical data...
Loading historical data...
Loading historical data...
Loading historical data...
Loading historical data...

Documentation

Showing up to 5 results
|